| time (UTC) | temp F | wind direction | speed knots | gust knots | rain 1hr in | rain 24hr in | rain mn in | humidity % | barometer mb |
| 20260510030542 | 71 | 130 | 7.8 | 16.5 | 0.00 | 0.11 | 0.02 | 89 | 1011.3 |
| 20260510030057 | 71 | 155 | 7.0 | 13.0 | 0.00 | 0.11 | 0.02 | 89 | 1011.3 |
| 20260510025542 | 71 | 180 | 7.0 | 14.8 | 0.00 | 0.11 | 0.02 | 89 | 1011.1 |
| 20260510025042 | 71 | 177 | 7.0 | 20.9 | 0.00 | 0.11 | 0.02 | 89 | 1011.1 |
| 20260510024550 | 71 | 141 | 6.1 | 20.9 | 0.00 | 0.11 | 0.02 | 89 | 1011.0 |
| 20260510024042 | 71 | 107 | 9.6 | 20.0 | 0.00 | 0.11 | 0.02 | 89 | 1010.8 |
| 20260510023542 | 71 | 89 | 9.6 | 18.2 | 0.00 | 0.11 | 0.02 | 88 | 1010.8 |
| 20260510023046 | 71 | 103 | 9.6 | 17.4 | 0.00 | 0.11 | 0.02 | 88 | 1010.7 |
| 20260510022542 | 71 | 151 | 7.0 | 17.4 | 0.00 | 0.11 | 0.02 | 88 | 1010.7 |
| 20260510022042 | 71 | 139 | 7.0 | 23.5 | 0.00 | 0.11 | 0.02 | 88 | 1010.5 |
| 20260510021553 | 72 | 127 | 9.6 | 23.5 | 0.00 | 0.11 | 0.02 | 87 | 1010.5 |
| 20260510021041 | 72 | 177 | 12.2 | 23.5 | 0.00 | 0.11 | 0.02 | 87 | 1010.5 |
| 20260510020539 | 72 | 161 | 7.0 | 19.1 | 0.00 | 0.11 | 0.02 | 86 | 1010.5 |
| 20260510020053 | 72 | 108 | 7.8 | 19.1 | 0.00 | 0.11 | 0.02 | 85 | 1010.3 |
| 20260510015539 | 72 | 132 | 6.1 | 19.1 | 0.00 | 0.11 | 0.02 | 84 | 1010.3 |
| 20260510015038 | 72 | 94 | 6.1 | 13.0 | 0.00 | 0.11 | 0.02 | 83 | 1010.2 |
| 20260510014553 | 72 | 140 | 5.2 | 13.0 | 0.00 | 0.11 | 0.02 | 82 | 1010.1 |
| 20260510014038 | 73 | 51 | 3.5 | 8.7 | 0.00 | 0.11 | 0.02 | 82 | 1010.1 |
| 20260510013543 | 73 | 121 | 4.3 | 8.7 | 0.00 | 0.11 | 0.02 | 82 | 1010.2 |
| 20260510013051 | 73 | 136 | 3.5 | 8.7 | 0.00 | 0.11 | 0.02 | 82 | 1010.1 |
| 20260510012544 | 73 | 118 | 3.5 | 12.2 | 0.00 | 0.11 | 0.02 | 82 | 1009.9 |
| 20260510012042 | 74 | 109 | 4.3 | 12.2 | 0.00 | 0.11 | 0.02 | 82 | 1010.0 |
| 20260510011552 | 74 | 95 | 4.3 | 11.3 | 0.00 | 0.11 | 0.02 | 81 | 1010.0 |
| 20260510011043 | 74 | 91 | 5.2 | 12.2 | 0.00 | 0.11 | 0.02 | 81 | 1010.0 |
| 20260510010542 | 74 | 118 | 4.3 | 12.2 | 0.00 | 0.11 | 0.02 | 81 | 1009.7 |
| 20260510010046 | 75 | 163 | 5.2 | 10.4 | 0.00 | 0.11 | 0.02 | 80 | 1009.7 |
| 20260510005542 | 75 | 163 | 6.1 | 10.4 | 0.00 | 0.11 | 0.02 | 80 | 1009.6 |
| 20260510005041 | 75 | 150 | 4.3 | 8.7 | 0.00 | 0.11 | 0.02 | 80 | 1009.6 |
| 20260510004553 | 75 | 159 | 4.3 | 11.3 | 0.00 | 0.11 | 0.02 | 80 | 1009.4 |
| 20260510004042 | 75 | 128 | 4.3 | 11.3 | 0.00 | 0.11 | 0.02 | 80 | 1009.4 |
| 20260510003542 | 75 | 128 | 5.2 | 10.4 | 0.00 | 0.11 | 0.02 | 81 | 1009.5 |
| 20260510003045 | 75 | 152 | 5.2 | 15.6 | 0.00 | 0.11 | 0.02 | 81 | 1009.5 |
| 20260510002545 | 76 | 161 | 6.1 | 15.6 | 0.00 | 0.11 | 0.02 | 80 | 1009.5 |
| 20260510002042 | 76 | 120 | 7.0 | 20.0 | 0.00 | 0.11 | 0.02 | 79 | 1009.4 |
| 20260510001551 | 77 | 137 | 8.7 | 20.0 | 0.00 | 0.11 | 0.02 | 79 | 1009.4 |
| 20260510001042 | 77 | 128 | 7.8 | 15.6 | 0.00 | 0.11 | 0.02 | 78 | 1009.3 |
| 20260510000545 | 77 | 111 | 4.3 | 7.8 | 0.00 | 0.11 | 0.02 | 79 | 1009.3 |
| 20260510000105 | 78 | 116 | 3.5 | 13.0 | 0.00 | 0.11 | 0.02 | 78 | 1009.1 |
| 20260509235542 | 78 | 54 | 4.3 | 13.0 | 0.00 | 0.11 | 0.02 | 78 | 1009.1 |
| 20260509235042 | 78 | 118 | 5.2 | 13.0 | 0.00 | 0.11 | 0.02 | 78 | 1009.0 |
| 20260509234600 | 78 | 83 | 4.3 | 11.3 | 0.00 | 0.11 | 0.02 | 78 | 1009.0 |
| 20260509234042 | 78 | 86 | 5.2 | 11.3 | 0.00 | 0.11 | 0.02 | 78 | 1009.0 |
| 20260509233541 | 78 | 100 | 5.2 | 11.3 | 0.00 | 0.11 | 0.02 | 80 | 1009.0 |
| 20260509233052 | 78 | 93 | 2.6 | 5.2 | 0.00 | 0.11 | 0.02 | 83 | 1008.9 |
| 20260509232543 | 78 | 91 | 0.9 | 5.2 | 0.00 | 0.11 | 0.02 | 82 | 1008.8 |
| 20260509232042 | 78 | 109 | 1.7 | 5.2 | 0.00 | 0.11 | 0.02 | 81 | 1008.7 |
| 20260509231553 | 78 | 111 | 1.7 | 5.2 | 0.00 | 0.11 | 0.02 | 82 | 1008.8 |
| 20260509231042 | 78 | 83 | 0.9 | 2.6 | 0.00 | 0.11 | 0.02 | 82 | 1008.8 |
| 20260509230544 | 78 | 83 | 0.9 | 4.3 | 0.00 | 0.11 | 0.02 | 81 | 1008.8 |
| 20260509230053 | 78 | 101 | 0.9 | 4.3 | 0.00 | 0.11 | 0.02 | 81 | 1008.8 |
| 20260509225543 | 78 | 132 | 0.9 | 3.5 | 0.00 | 0.11 | 0.02 | 82 | 1008.8 |
| 20260509225038 | 78 | 83 | 0.9 | 3.5 | 0.00 | 0.11 | 0.02 | 83 | 1008.7 |
| 20260509224547 | 78 | 95 | 1.7 | 3.5 | 0.00 | 0.11 | 0.02 | 83 | 1008.8 |
| 20260509224042 | 78 | 107 | 1.7 | 3.5 | 0.00 | 0.11 | 0.02 | 82 | 1008.6 |
| 20260509223543 | 79 | 101 | 1.7 | 3.5 | 0.00 | 0.11 | 0.02 | 81 | 1008.7 |
| 20260509223101 | 79 | 93 | 1.7 | 2.6 | 0.00 | 0.11 | 0.02 | 82 | 1008.5 |
| 20260509222543 | 79 | 24 | 1.7 | 2.6 | 0.00 | 0.11 | 0.02 | 82 | 1008.6 |
| 20260509222042 | 79 | 62 | 0.9 | 1.7 | 0.00 | 0.11 | 0.02 | 81 | 1008.6 |
| 20260509221551 | 79 | 109 | 0.0 | 3.5 | 0.00 | 0.11 | 0.02 | 78 | 1008.7 |
| 20260509221041 | 79 | 143 | 0.9 | 3.5 | 0.00 | 0.11 | 0.02 | 78 | 1008.6 |
| 20260509220542 | 79 | 101 | 0.9 | 3.5 | 0.00 | 0.11 | 0.02 | 79 | 1008.6 |
| 20260509220051 | 79 | 116 | 0.9 | 3.5 | 0.00 | 0.11 | 0.02 | 79 | 1008.6 |
| 20260509215542 | 79 | 76 | 1.7 | 3.5 | 0.00 | 0.11 | 0.02 | 79 | 1008.5 |
| 20260509215042 | 79 | 95 | 1.7 | 4.3 | 0.00 | 0.11 | 0.02 | 77 | 1008.6 |
| 20260509214547 | 80 | 110 | 1.7 | 5.2 | 0.00 | 0.11 | 0.02 | 75 | 1008.6 |
| 20260509214042 | 80 | 136 | 1.7 | 6.1 | 0.00 | 0.11 | 0.02 | 75 | 1008.6 |
| 20260509213542 | 80 | 152 | 1.7 | 6.1 | 0.00 | 0.11 | 0.02 | 75 | 1008.6 |
| 20260509213054 | 80 | 195 | 2.6 | 6.1 | 0.00 | 0.11 | 0.02 | 75 | 1008.6 |
| 20260509212542 | 80 | 130 | 3.5 | 6.1 | 0.00 | 0.11 | 0.02 | 75 | 1008.8 |
| 20260509212042 | 80 | 113 | 1.7 | 5.2 | 0.00 | 0.11 | 0.02 | 76 | 1008.9 |
| 20260509211553 | 80 | 96 | 2.6 | 6.1 | 0.00 | 0.11 | 0.02 | 74 | 1008.8 |
| 20260509211043 | 81 | 107 | 2.6 | 6.1 | 0.00 | 0.11 | 0.02 | 74 | 1008.8 |
| 20260509210543 | 81 | 116 | 2.6 | 6.1 | 0.00 | 0.11 | 0.02 | 75 | 1009.0 |
| 20260509210100 | 81 | 127 | 2.6 | 6.1 | 0.00 | 0.11 | 0.02 | 73 | 1009.1 |
| 20260509205542 | 80 | 154 | 0.9 | 5.2 | 0.00 | 0.11 | 0.02 | 73 | 1009.1 |
| 20260509205042 | 80 | 96 | 2.6 | 6.1 | 0.00 | 0.11 | 0.02 | 73 | 1009.1 |
| 20260509204555 | 81 | 132 | 2.6 | 6.1 | 0.00 | 0.11 | 0.02 | 74 | 1009.3 |
| 20260509204042 | 81 | 122 | 2.6 | 6.1 | 0.00 | 0.11 | 0.02 | 73 | 1009.1 |
| 20260509203542 | 81 | 119 | 1.7 | 6.1 | 0.00 | 0.11 | 0.02 | 74 | 1009.2 |
| 20260509203055 | 81 | 113 | 2.6 | 7.8 | 0.00 | 0.11 | 0.02 | 74 | 1009.3 |
| 20260509202542 | 82 | 359 | 2.6 | 9.6 | 0.00 | 0.11 | 0.02 | 72 | 1009.4 |
| 20260509202042 | 83 | 111 | 2.6 | 10.4 | 0.00 | 0.11 | 0.02 | 72 | 1009.4 |
| 20260509201548 | 85 | 143 | 6.1 | 10.4 | 0.00 | 0.11 | 0.02 | 69 | 1009.4 |
| 20260509201041 | 83 | 138 | 5.2 | 9.6 | 0.00 | 0.11 | 0.02 | 73 | 1009.5 |
| 20260509200542 | 83 | 134 | 5.2 | 8.7 | 0.00 | 0.11 | 0.02 | 71 | 1009.5 |
| 20260509200106 | 82 | 47 | 0.9 | 5.2 | 0.00 | 0.11 | 0.02 | 70 | 1009.6 |
| 20260509195542 | 81 | 38 | 1.7 | 7.8 | 0.00 | 0.11 | 0.02 | 70 | 1009.5 |
| 20260509195041 | 83 | 255 | 2.6 | 7.8 | 0.00 | 0.11 | 0.02 | 69 | 1009.6 |
| 20260509194557 | 83 | 91 | 1.7 | 10.4 | 0.00 | 0.11 | 0.02 | 72 | 1009.7 |
| 20260509194042 | 83 | 219 | 5.2 | 10.4 | 0.00 | 0.11 | 0.02 | 73 | 1009.8 |
| 20260509193542 | 82 | 334 | 3.5 | 8.7 | 0.00 | 0.11 | 0.02 | 74 | 1009.7 |
| 20260509193056 | 81 | 244 | 2.6 | 8.7 | 0.00 | 0.11 | 0.02 | 73 | 1009.8 |
| 20260509192542 | 81 | 255 | 4.3 | 7.8 | 0.00 | 0.11 | 0.02 | 72 | 1009.9 |
| 20260509192042 | 80 | 205 | 3.5 | 7.0 | 0.00 | 0.11 | 0.02 | 77 | 1010.0 |
| 20260509191551 | 80 | 255 | 3.5 | 7.0 | 0.00 | 0.11 | 0.02 | 76 | 1010.0 |
| 20260509191041 | 79 | 202 | 1.7 | 7.0 | 0.00 | 0.11 | 0.02 | 77 | 1010.1 |
| 20260509190541 | 79 | 147 | 3.5 | 6.1 | 0.00 | 0.11 | 0.02 | 78 | 1010.2 |
| 20260509190053 | 79 | 245 | 0.9 | 5.2 | 0.00 | 0.11 | 0.02 | 76 | 1010.2 |
| 20260509185545 | 80 | 74 | 1.7 | 5.2 | 0.00 | 0.11 | 0.02 | 76 | 1010.2 |
| 20260509185043 | 81 | 168 | 1.7 | 5.2 | 0.00 | 0.11 | 0.02 | 78 | 1010.3 |
| 20260509184601 | 79 | 222 | 2.6 | 5.2 | 0.00 | 0.11 | 0.02 | 78 | 1010.3 |
| 20260509184042 | 78 | 224 | 1.7 | 4.3 | 0.00 | 0.11 | 0.02 | 79 | 1010.3 |
| 20260509183542 | 78 | 192 | 0.9 | 8.7 | 0.00 | 0.11 | 0.02 | 80 | 1010.3 |
| 20260509183051 | 78 | 160 | 2.6 | 8.7 | 0.00 | 0.11 | 0.02 | 81 | 1010.3 |
| 20260509182543 | 77 | 120 | 1.7 | 6.1 | 0.00 | 0.11 | 0.02 | 80 | 1010.3 |
| 20260509182042 | 78 | 226 | 2.6 | 9.6 | 0.00 | 0.11 | 0.02 | 80 | 1010.3 |
| 20260509181621 | 78 | 161 | 3.5 | 9.6 | 0.00 | 0.11 | 0.02 | 81 | 1010.4 |
| 20260509181043 | 77 | 165 | 1.7 | 8.7 | 0.00 | 0.11 | 0.02 | 82 | 1010.5 |
| 20260509180541 | 77 | 66 | 2.6 | 8.7 | 0.00 | 0.11 | 0.02 | 81 | 1010.4 |
| 20260509180100 | 77 | 226 | 4.3 | 7.8 | 0.00 | 0.11 | 0.02 | 81 | 1010.5 |
| 20260509175542 | 77 | 242 | 4.3 | 8.7 | 0.00 | 0.11 | 0.02 | 79 | 1010.5 |
| 20260509175042 | 78 | 222 | 4.3 | 8.7 | 0.00 | 0.11 | 0.02 | 79 | 1010.6 |
| 20260509174558 | 78 | 165 | 2.6 | 8.7 | 0.00 | 0.11 | 0.02 | 79 | 1010.6 |
| 20260509174042 | 80 | 219 | 3.5 | 7.8 | 0.00 | 0.11 | 0.02 | 75 | 1010.7 |
| 20260509173542 | 78 | 107 | 2.6 | 7.8 | 0.00 | 0.11 | 0.02 | 80 | 1010.6 |
| 20260509173102 | 77 | 148 | 0.9 | 6.1 | 0.00 | 0.11 | 0.02 | 82 | 1010.6 |
| 20260509172542 | 77 | 76 | 3.5 | 6.1 | 0.00 | 0.11 | 0.02 | 81 | 1010.6 |
| 20260509172043 | 77 | 95 | 1.7 | 5.2 | 0.00 | 0.11 | 0.02 | 82 | 1010.6 |
| 20260509171555 | 77 | 202 | 0.9 | 6.1 | 0.00 | 0.11 | 0.02 | 79 | 1010.8 |
| 20260509171042 | 78 | 255 | 1.7 | 7.0 | 0.00 | 0.11 | 0.02 | 79 | 1010.7 |
| 20260509170543 | 79 | 168 | 3.5 | 7.0 | 0.00 | 0.11 | 0.02 | 79 | 1010.7 |
| 20260509170053 | 79 | 134 | 3.5 | 7.0 | 0.00 | 0.11 | 0.02 | 84 | 1010.7 |
| 20260509165541 | 77 | 105 | 0.9 | 7.0 | 0.00 | 0.11 | 0.02 | 83 | 1010.8 |
| 20260509165043 | 76 | 282 | 0.9 | 9.6 | 0.00 | 0.11 | 0.02 | 82 | 1010.7 |
| 20260509164553 | 77 | 103 | 2.6 | 9.6 | 0.00 | 0.11 | 0.02 | 83 | 1010.8 |
| 20260509164041 | 78 | 39 | 6.1 | 9.6 | 0.00 | 0.11 | 0.02 | 83 | 1010.7 |
| 20260509163541 | 76 | 165 | 3.5 | 7.8 | 0.00 | 0.11 | 0.02 | 83 | 1010.8 |
| 20260509163053 | 75 | 90 | 2.6 | 7.8 | 0.00 | 0.11 | 0.02 | 84 | 1010.7 |
| 20260509162542 | 75 | 57 | 4.3 | 7.8 | 0.00 | 0.11 | 0.02 | 85 | 1010.7 |
| 20260509162044 | 74 | 12 | 0.9 | 4.3 | 0.00 | 0.11 | 0.02 | 85 | 1010.8 |
| 20260509161549 | 74 | 138 | 1.7 | 4.3 | 0.00 | 0.11 | 0.02 | 85 | 1010.9 |
| 20260509161041 | 74 | 229 | 1.7 | 4.3 | 0.00 | 0.11 | 0.02 | 84 | 1011.0 |
| 20260509160542 | 74 | 211 | 1.7 | 6.1 | 0.00 | 0.11 | 0.02 | 85 | 1010.8 |
| 20260509160057 | 74 | 328 | 1.7 | 6.1 | 0.00 | 0.11 | 0.02 | 86 | 1010.9 |
| 20260509155543 | 74 | 328 | 0.9 | 4.3 | 0.00 | 0.11 | 0.02 | 86 | 1010.9 |
| 20260509155041 | 73 | 186 | 0.9 | 4.3 | 0.00 | 0.11 | 0.02 | 86 | 1010.8 |
| 20260509154549 | 73 | 136 | 0.9 | 6.1 | 0.00 | 0.11 | 0.02 | 86 | 1010.8 |
| 20260509154042 | 73 | 276 | 1.7 | 6.1 | 0.00 | 0.11 | 0.02 | 86 | 1010.8 |
| 20260509153541 | 73 | 269 | 3.5 | 6.1 | 0.00 | 0.11 | 0.02 | 86 | 1010.9 |
| 20260509153053 | 73 | 244 | 2.6 | 7.8 | 0.00 | 0.11 | 0.02 | 86 | 1010.9 |
| 20260509152541 | 73 | 288 | 4.3 | 8.7 | 0.00 | 0.11 | 0.02 | 86 | 1010.9 |
| 20260509152042 | 73 | 286 | 4.3 | 8.7 | 0.00 | 0.11 | 0.02 | 87 | 1010.8 |
| 20260509151556 | 72 | 309 | 1.7 | 7.0 | 0.00 | 0.11 | 0.02 | 87 | 1010.9 |
| 20260509151042 | 72 | 284 | 1.7 | 5.2 | 0.00 | 0.11 | 0.02 | 88 | 1010.9 |
| 20260509150541 | 72 | 255 | 1.7 | 6.1 | 0.00 | 0.11 | 0.02 | 89 | 1010.9 |
| 20260509150052 | 72 | 272 | 2.6 | 7.0 | 0.00 | 0.11 | 0.02 | 89 | 1011.0 |
| 20260509145542 | 72 | 288 | 1.7 | 8.7 | 0.00 | 0.11 | 0.02 | 90 | 1011.0 |
| 20260509145043 | 72 | 328 | 3.5 | 8.7 | 0.00 | 0.11 | 0.02 | 90 | 1011.0 |
| 20260509144606 | 71 | 6 | 2.6 | 7.0 | 0.00 | 0.11 | 0.02 | 91 | 1010.9 |
| 20260509144041 | 71 | 276 | 1.7 | 7.0 | 0.00 | 0.11 | 0.02 | 91 | 1011.0 |
| 20260509143542 | 71 | 269 | 2.6 | 7.0 | 0.00 | 0.11 | 0.02 | 92 | 1011.1 |
| 20260509143116 | 71 | 240 | 3.5 | 7.8 | 0.00 | 0.11 | 0.02 | 92 | 1011.2 |
| 20260509142541 | 71 | 235 | 3.5 | 7.8 | 0.00 | 0.11 | 0.02 | 93 | 1011.1 |
| 20260509142041 | 70 | 240 | 3.5 | 9.6 | 0.00 | 0.11 | 0.02 | 93 | 1011.1 |
| 20260509141553 | 70 | 179 | 3.5 | 9.6 | 0.00 | 0.11 | 0.02 | 93 | 1011.0 |
| 20260509141042 | 70 | 251 | 4.3 | 9.6 | 0.00 | 0.11 | 0.02 | 94 | 1011.0 |
| 20260509140543 | 69 | 242 | 4.3 | 8.7 | 0.00 | 0.11 | 0.02 | 94 | 1011.0 |
| 20260509140100 | 69 | 249 | 3.5 | 8.7 | 0.00 | 0.11 | 0.02 | 94 | 1011.2 |
| 20260509135546 | 69 | 284 | 3.5 | 7.8 | 0.00 | 0.11 | 0.02 | 94 | 1011.1 |
| 20260509135046 | 69 | 242 | 1.7 | 6.1 | 0.00 | 0.11 | 0.02 | 94 | 1011.1 |
| 20260509134609 | 68 | 265 | 2.6 | 7.0 | 0.00 | 0.11 | 0.02 | 94 | 1011.0 |
| 20260509134043 | 68 | 303 | 3.5 | 7.0 | 0.00 | 0.11 | 0.02 | 94 | 1011.1 |
| 20260509133544 | 68 | 302 | 2.6 | 6.1 | 0.00 | 0.11 | 0.02 | 94 | 1011.0 |
| 20260509133050 | 68 | 249 | 1.7 | 6.1 | 0.00 | 0.11 | 0.02 | 94 | 1011.0 |
| 20260509132543 | 67 | 211 | 2.6 | 6.1 | 0.00 | 0.11 | 0.02 | 94 | 1010.8 |
| 20260509132046 | 67 | 229 | 1.7 | 4.3 | 0.00 | 0.11 | 0.02 | 94 | 1010.8 |
| 20260509131550 | 67 | 237 | 1.7 | 4.3 | 0.00 | 0.11 | 0.02 | 94 | 1010.7 |
| 20260509131042 | 66 | 255 | 1.7 | 4.3 | 0.00 | 0.11 | 0.02 | 94 | 1010.9 |
| 20260509130543 | 66 | 211 | 0.9 | 3.5 | 0.00 | 0.11 | 0.02 | 94 | 1010.9 |
| 20260509130058 | 66 | 168 | 0.9 | 4.3 | 0.00 | 0.11 | 0.02 | 94 | 1010.8 |
| 20260509125543 | 66 | 0 | 0.0 | 4.3 | 0.00 | 0.11 | 0.02 | 94 | 1010.9 |
| 20260509125042 | 66 | 139 | 0.9 | 7.8 | 0.00 | 0.11 | 0.02 | 93 | 1010.9 |
| 20260509124555 | 66 | 150 | 2.6 | 7.8 | 0.00 | 0.11 | 0.02 | 93 | 1011.0 |
| 20260509124044 | 65 | 174 | 4.3 | 7.8 | 0.00 | 0.11 | 0.02 | 93 | 1011.1 |
| 20260509123545 | 65 | 127 | 3.5 | 7.8 | 0.00 | 0.11 | 0.02 | 93 | 1011.0 |
| 20260509123114 | 65 | 262 | 2.6 | 7.8 | 0.00 | 0.11 | 0.02 | 93 | 1011.0 |
| 20260509122543 | 65 | 149 | 4.3 | 7.8 | 0.00 | 0.11 | 0.02 | 93 | 1010.9 |
| 20260509122042 | 65 | 186 | 3.5 | 7.0 | 0.00 | 0.11 | 0.02 | 93 | 1010.8 |
| 20260509121611 | 65 | 140 | 3.5 | 7.0 | 0.00 | 0.11 | 0.02 | 93 | 1010.8 |
| 20260509121048 | 65 | 150 | 1.7 | 4.3 | 0.00 | 0.11 | 0.02 | 93 | 1010.8 |
| 20260509120543 | 65 | 143 | 1.7 | 4.3 | 0.00 | 0.11 | 0.02 | 93 | 1010.7 |
| 20260509120107 | 65 | 143 | 0.0 | 3.5 | 0.00 | 0.11 | 0.02 | 93 | 1010.6 |
| 20260509115544 | 65 | 168 | 0.9 | 3.5 | 0.00 | 0.11 | 0.02 | 93 | 1010.4 |
| 20260509115042 | 65 | 159 | 0.9 | 2.6 | 0.00 | 0.11 | 0.02 | 93 | 1010.3 |
| 20260509114555 | 65 | 152 | 0.0 | 3.5 | 0.00 | 0.11 | 0.02 | 93 | 1010.2 |
| 20260509114047 | 65 | 139 | 0.9 | 3.5 | 0.00 | 0.11 | 0.02 | 93 | 1010.1 |
| 20260509113546 | 65 | 152 | 1.7 | 3.5 | 0.00 | 0.11 | 0.02 | 93 | 1010.0 |
| 20260509113049 | 65 | 109 | 0.0 | 3.5 | 0.00 | 0.11 | 0.02 | 92 | 1010.0 |
| 20260509112542 | 65 | 0 | 0.0 | 6.1 | 0.00 | 0.11 | 0.02 | 92 | 1009.8 |
| 20260509112042 | 65 | 24 | 0.9 | 7.8 | 0.00 | 0.11 | 0.02 | 92 | 1009.8 |
| 20260509111602 | 65 | 123 | 3.5 | 8.7 | 0.00 | 0.11 | 0.02 | 92 | 1009.7 |
| 20260509111043 | 65 | 155 | 3.5 | 8.7 | 0.02 | 0.11 | 0.02 | 92 | 1009.6 |
| 20260509110544 | 65 | 148 | 4.3 | 9.6 | 0.02 | 0.11 | 0.02 | 92 | 1009.6 |
| 20260509110054 | 65 | 152 | 5.2 | 9.6 | 0.02 | 0.11 | 0.02 | 92 | 1009.6 |
| 20260509105543 | 65 | 154 | 4.3 | 8.7 | 0.02 | 0.11 | 0.02 | 92 | 1009.6 |
| 20260509105041 | 65 | 163 | 4.3 | 8.7 | 0.02 | 0.11 | 0.02 | 92 | 1009.7 |
| 20260509104551 | 65 | 148 | 3.5 | 7.0 | 0.02 | 0.11 | 0.02 | 92 | 1009.6 |
| 20260509104041 | 65 | 168 | 2.6 | 5.2 | 0.02 | 0.11 | 0.02 | 92 | 1009.5 |
| 20260509103540 | 65 | 161 | 1.7 | 3.5 | 0.02 | 0.11 | 0.02 | 92 | 1009.5 |
| 20260509103101 | 65 | 0 | 0.0 | 4.3 | 0.02 | 0.11 | 0.02 | 92 | 1009.5 |
| 20260509102542 | 65 | 359 | 0.9 | 4.3 | 0.02 | 0.11 | 0.02 | 92 | 1009.5 |
| 20260509102040 | 65 | 0 | 2.6 | 5.2 | 0.02 | 0.11 | 0.02 | 92 | 1009.3 |
| 20260509101620 | 65 | 150 | 3.5 | 5.2 | 0.02 | 0.11 | 0.02 | 92 | 1009.3 |
| 20260509101042 | 65 | 168 | 2.6 | 6.1 | 0.00 | 0.09 | 0.00 | 92 | 1009.5 |
| 20260509100545 | 65 | 183 | 3.5 | 7.0 | 0.00 | 0.09 | 0.00 | 92 | 1009.5 |
| 20260509100057 | 65 | 161 | 3.5 | 7.0 | 0.00 | 0.09 | 0.00 | 92 | 1009.5 |
| 20260509095541 | 64 | 177 | 2.6 | 6.1 | 0.00 | 0.09 | 0.00 | 92 | 1009.6 |
| 20260509095042 | 64 | 147 | 3.5 | 6.1 | 0.00 | 0.09 | 0.00 | 92 | 1009.5 |
| 20260509094556 | 64 | 150 | 2.6 | 6.1 | 0.00 | 0.09 | 0.00 | 92 | 1009.6 |
| 20260509094042 | 64 | 130 | 2.6 | 6.1 | 0.00 | 0.09 | 0.00 | 92 | 1009.7 |
| 20260509093542 | 64 | 134 | 2.6 | 5.2 | 0.00 | 0.09 | 0.00 | 92 | 1009.7 |
| 20260509093059 | 64 | 136 | 2.6 | 6.1 | 0.00 | 0.09 | 0.00 | 92 | 1009.8 |
| 20260509092541 | 64 | 119 | 3.5 | 6.1 | 0.00 | 0.09 | 0.00 | 92 | 1009.9 |
| 20260509092041 | 64 | 137 | 3.5 | 6.1 | 0.00 | 0.09 | 0.00 | 92 | 1009.8 |
| 20260509091602 | 64 | 159 | 4.3 | 6.1 | 0.00 | 0.09 | 0.00 | 92 | 1009.9 |
| 20260509091043 | 64 | 154 | 3.5 | 6.1 | 0.00 | 0.09 | 0.00 | 92 | 1009.8 |
| 20260509090543 | 64 | 157 | 3.5 | 6.1 | 0.00 | 0.09 | 0.00 | 92 | 1009.8 |
| 20260509085539 | 64 | 174 | 1.7 | 5.2 | 0.00 | 0.09 | 0.00 | 91 | 1009.7 |
| 20260509085041 | 64 | 152 | 0.0 | 1.7 | 0.00 | 0.09 | 0.00 | 91 | 1009.6 |
| 20260509084555 | 64 | 0 | 0.9 | 3.5 | 0.00 | 0.09 | 0.00 | 91 | 1009.6 |
| 20260509084045 | 64 | 148 | 0.9 | 3.5 | 0.00 | 0.09 | 0.00 | 91 | 1009.5 |
| 20260509083543 | 64 | 127 | 0.0 | 3.5 | 0.00 | 0.09 | 0.00 | 91 | 1009.5 |
| 20260509083054 | 64 | 0 | 0.0 | 7.8 | 0.00 | 0.09 | 0.00 | 91 | 1009.4 |
| 20260509082541 | 64 | 130 | 1.7 | 7.8 | 0.00 | 0.09 | 0.00 | 91 | 1009.4 |
| 20260509082041 | 64 | 157 | 4.3 | 7.0 | 0.00 | 0.09 | 0.00 | 91 | 1009.3 |
| 20260509081559 | 64 | 132 | 0.9 | 5.2 | 0.00 | 0.09 | 0.00 | 91 | 1009.5 |
| 20260509081042 | 64 | 168 | 2.6 | 5.2 | 0.00 | 0.09 | 0.00 | 91 | 1009.5 |
| 20260509080540 | 64 | 168 | 3.5 | 5.2 | 0.00 | 0.09 | 0.00 | 91 | 1009.4 |
| 20260509080050 | 64 | 134 | 0.0 | 2.6 | 0.00 | 0.09 | 0.00 | 90 | 1009.5 |
| 20260509075543 | 64 | 299 | 0.9 | 3.5 | 0.00 | 0.09 | 0.00 | 90 | 1009.7 |
| 20260509075041 | 64 | 309 | 0.9 | 6.1 | 0.00 | 0.09 | 0.00 | 90 | 1009.7 |
| 20260509074551 | 64 | 95 | 1.7 | 6.1 | 0.00 | 0.09 | 0.00 | 90 | 1009.7 |
| 20260509074040 | 64 | 131 | 2.6 | 4.3 | 0.00 | 0.09 | 0.00 | 90 | 1009.8 |
| 20260509073545 | 64 | 148 | 0.0 | 3.5 | 0.00 | 0.09 | 0.00 | 90 | 1009.8 |
| 20260509073101 | 65 | 41 | 0.9 | 3.5 | 0.00 | 0.09 | 0.00 | 90 | 1009.6 |
| 20260509072543 | 65 | 49 | 1.7 | 7.0 | 0.00 | 0.09 | 0.00 | 90 | 1009.6 |
| 20260509072040 | 65 | 58 | 2.6 | 7.0 | 0.00 | 0.09 | 0.00 | 90 | 1009.6 |
| 20260509071553 | 65 | 51 | 2.6 | 5.2 | 0.00 | 0.09 | 0.00 | 90 | 1009.6 |
| 20260509071039 | 65 | 58 | 1.7 | 5.2 | 0.00 | 0.09 | 0.00 | 90 | 1009.8 |
| 20260509070540 | 65 | 66 | 1.7 | 5.2 | 0.00 | 0.09 | 0.00 | 90 | 1010.0 |
| 20260509070054 | 65 | 83 | 0.9 | 7.0 | 0.00 | 0.09 | 0.00 | 90 | 1009.9 |
| 20260509065541 | 65 | 39 | 3.5 | 7.8 | 0.00 | 0.09 | 0.00 | 90 | 1010.0 |
| 20260509065042 | 65 | 53 | 2.6 | 7.8 | 0.00 | 0.09 | 0.00 | 90 | 1009.9 |
| 20260509064601 | 65 | 57 | 3.5 | 6.1 | 0.00 | 0.09 | 0.00 | 90 | 1010.1 |
| 20260509064041 | 65 | 89 | 3.5 | 6.1 | 0.00 | 0.09 | 0.00 | 90 | 1010.2 |
| 20260509063540 | 65 | 66 | 2.6 | 8.7 | 0.00 | 0.09 | 0.00 | 90 | 1010.2 |
| 20260509063050 | 65 | 51 | 4.3 | 8.7 | 0.00 | 0.09 | 0.00 | 90 | 1010.6 |
| 20260509062541 | 65 | 40 | 4.3 | 8.7 | 0.00 | 0.09 | 0.00 | 90 | 1010.6 |
| 20260509062040 | 65 | 44 | 3.5 | 8.7 | 0.00 | 0.09 | 0.00 | 90 | 1010.5 |
| 20260509061547 | 65 | 24 | 1.7 | 11.3 | 0.00 | 0.09 | 0.00 | 90 | 1010.1 |
| 20260509061042 | 65 | 195 | 3.5 | 12.2 | 0.00 | 0.09 | 0.00 | 90 | 1010.0 |
| 20260509060541 | 65 | 165 | 6.1 | 13.0 | 0.00 | 0.09 | 0.00 | 90 | 1010.0 |
| 20260509060056 | 65 | 180 | 5.2 | 13.9 | 0.00 | 0.09 | 0.00 | 91 | 1010.2 |
| 20260509055544 | 65 | 168 | 6.1 | 13.9 | 0.00 | 0.09 | 0.00 | 91 | 1010.4 |
| 20260509055041 | 64 | 185 | 6.1 | 13.0 | 0.00 | 0.09 | 0.00 | 91 | 1010.4 |
| 20260509054600 | 64 | 105 | 4.3 | 13.0 | 0.00 | 0.09 | 0.00 | 91 | 1010.9 |
| 20260509054041 | 64 | 129 | 6.1 | 13.0 | 0.00 | 0.09 | 0.00 | 91 | 1010.7 |
| 20260509053541 | 64 | 152 | 6.1 | 11.3 | 0.00 | 0.09 | 0.00 | 91 | 1010.8 |
| 20260509053055 | 64 | 148 | 5.2 | 11.3 | 0.00 | 0.09 | 0.00 | 92 | 1010.9 |
| 20260509052540 | 64 | 157 | 4.3 | 9.6 | 0.00 | 0.09 | 0.00 | 92 | 1010.9 |
| 20260509052040 | 64 | 198 | 2.6 | 5.2 | 0.00 | 0.09 | 0.00 | 92 | 1010.7 |
| 20260509051546 | 64 | 183 | 1.7 | 6.1 | 0.01 | 0.09 | 0.00 | 92 | 1010.7 |
| 20260509051044 | 64 | 66 | 1.7 | 7.8 | 0.09 | 0.09 | 0.00 | 91 | 1010.7 |
| 20260509050541 | 65 | 92 | 3.5 | 7.8 | 0.09 | 0.09 | 0.00 | 92 | 1010.9 |
| 20260509050046 | 65 | 136 | 4.3 | 7.0 | 0.09 | 0.09 | 0.00 | 91 | 1011.3 |
| 20260509045540 | 65 | 113 | 1.7 | 5.2 | 0.09 | 0.09 | 0.09 | 91 | 1011.7 |
| 20260509045044 | 65 | 168 | 2.6 | 5.2 | 0.09 | 0.09 | 0.09 | 91 | 1011.7 |
| 20260509044551 | 64 | 224 | 2.6 | 8.7 | 0.09 | 0.09 | 0.09 | 91 | 1011.8 |
| 20260509044040 | 64 | 0 | 2.6 | 8.7 | 0.09 | 0.09 | 0.09 | 91 | 1011.6 |
| 20260509043543 | 64 | 146 | 2.6 | 9.6 | 0.09 | 0.09 | 0.09 | 91 | 1011.1 |
| 20260509043047 | 65 | 75 | 1.7 | 9.6 | 0.09 | 0.09 | 0.09 | 90 | 1011.1 |
| 20260509042541 | 65 | 96 | 3.5 | 6.1 | 0.09 | 0.09 | 0.09 | 89 | 1011.0 |
| 20260509042043 | 65 | 83 | 2.6 | 6.1 | 0.09 | 0.09 | 0.09 | 88 | 1011.8 |
| 20260509041615 | 66 | 109 | 2.6 | 7.0 | 0.07 | 0.07 | 0.07 | 86 | 1011.9 |
| 20260509041041 | 66 | 83 | 2.6 | 7.0 | 0.00 | 0.00 | 0.00 | 85 | 1012.1 |
| 20260509040540 | 66 | 83 | 2.6 | 6.1 | 0.00 | 0.00 | 0.00 | 84 | 1011.9 |
| 20260509040046 | 66 | 33 | 0.9 | 7.8 | 0.00 | 0.00 | 0.00 | 83 | 1011.5 |
| 20260509035540 | 67 | 24 | 1.7 | 7.8 | 0.00 | 0.00 | 0.00 | 82 | 1011.6 |
| 20260509035040 | 67 | 47 | 3.5 | 6.1 | 0.00 | 0.00 | 0.00 | 82 | 1011.4 |
| 20260509034544 | 67 | 36 | 2.6 | 4.3 | 0.00 | 0.00 | 0.00 | 80 | 1011.4 |
| 20260509034045 | 68 | 0 | 0.0 | 11.3 | 0.00 | 0.00 | 0.00 | 78 | 1011.0 |
| 20260509033543 | 68 | 255 | 2.6 | 11.3 | 0.00 | 0.00 | 0.00 | 78 | 1011.0 |
| 20260509033052 | 68 | 168 | 6.1 | 11.3 | 0.00 | 0.00 | 0.00 | 78 | 1009.7 |
| 20260509032544 | 68 | 184 | 3.5 | 11.3 | 0.00 | 0.00 | 0.00 | 77 | 1009.5 |
| 20260509032044 | 68 | 215 | 5.2 | 12.2 | 0.00 | 0.00 | 0.00 | 77 | 1009.3 |
| 20260509031555 | 68 | 163 | 6.1 | 15.6 | 0.00 | 0.00 | 0.00 | 77 | 1008.8 |
| 20260509031041 | 68 | 163 | 7.0 | 15.6 | 0.00 | 0.00 | 0.00 | 78 | 1008.6 |